Regional Weather Roundup
Issued by NWS

Home | Current Version | Previous Version | Text Only | Print | Product List | Glossary On
Versions: 1 2 3 4 5 6 7 8 9 10 11 12 13 14 15 16 17 18 19 20 21 22 23 24 25 26 27 28 29 30 31 32 33 34 35 36 37 38 39 40 41 42 43 44 45 46 47 48 49 50
000
ASUS43 KMPX 030101
RWRMN
WEATHER ROUNDUP FOR MINNESOTA
NATIONAL WEATHER SERVICE TWIN CITIES/CHANHASSEN MN
800 PM CDT TUE SEP 02 2014


NOTE: "FAIR" INDICATES FEW OR NO CLOUDS BELOW 12,000 FEET WITH NO
SIGNIFICANT WEATHER AND/OR OBSTRUCTIONS TO VISIBILITY. N/A MEANS
CURRENT SKY AND/OR WEATHER CONDITIONS ARE NOT AVAILABLE.

MNZ060>063-068>070-030200-
   Twin Cities Metro

CITY           SKY/WX    TMP DP  RH WIND       PRES   REMARKS
TWIN CITIES    PTCLDY    74  53  48 SW7       29.87R
ST PAUL        PTCLDY    71  53  52 SW6       29.87R
CRYSTAL        PTCLDY    74  52  46 SW6       29.85S
LAKEVILLE      CLEAR     66  59  77 CALM      29.88S
EDEN PRAIRIE   PTCLDY    70  55  59 SW5       29.86S
SOUTH ST PAUL  PTCLDY    72  54  52 SW3       29.87R
LAKE ELMO      FAIR      68  55  64 S3        29.88R
$$
MNZ001>005-007-008-013>017-022>024-027-028-030200-
   Northwest Minnesota

CITY           SKY/WX    TMP DP  RH WIND       PRES   REMARKS
BEMIDJI        PTCLDY    67  54  61 S6        29.74S
HALLOCK        PTCLDY    61  57  88 E6        29.66S
ROSEAU         MOCLDY    57  54  88 SE9       29.68F
WARROAD        MOCLDY    57  54  88 S7        29.71S
THIEF RVR FALL PTCLDY    70  57  64 SW7       29.69R
CROOKSTON      CLEAR     72  54  53 W10       29.69S
FOSSTON        CLEAR     66  54  63 SW21      29.73R
DETROIT LAKES  PTCLDY    70  54  56 SW8       29.78R
MOORHEAD       PTCLDY    72  63  73 S7        29.74R
PARK RAPIDS    MOCLDY    68  54  60 S9        29.77S
MAHNOMEN       MOCLDY    65  53  65 SW5       29.74S
$$
MNZ006-009>011-018-025>026-030200-
   North Central Minnesota

CITY           SKY/WX    TMP DP  RH WIND       PRES   REMARKS
BAUDETTE       CLOUDY    56  53  90 SW5       29.72F
FLAG ISLAND    PTCLDY    63  55  77 S7        29.68S
INTL FALLS     CLOUDY    63  53  70 S3        29.73S
WASKISH        RAIN      63  55  77 W20G32    29.79R
BIG FORK       PTCLDY    63  57  82 CALM      29.76S
LONGVILLE      PTCLDY    66  55  68 S5        29.78R
GRAND RAPIDS   CLEAR     66  52  59 S7        29.78S
CRANE LAKE     PTCLDY    59  54  82 CALM      29.78S
ORR            PTCLDY    57  52  82 SE3       29.75S
COOK           PTCLDY    57  55  94 SE1       29.78F
WALKER         FAIR      67  54  63 S3        29.76S
$$
MNZ012-019>021-037-030200-
   Northeast Minnesota

CITY           SKY/WX    TMP DP  RH WIND       PRES   REMARKS
DULUTH         PTCLDY    61  52  72 S3        29.82S
ELY            CLEAR     55  52  88 S5        29.80S
HIBBING        CLEAR     59  55  87 SE3       29.80S
EVELETH        CLEAR     57  55  94 CALM      29.82R
DULUTH HARBOR  PTCLDY    63  57  82 SE7       29.82S
TWO HARBORS    PTCLDY    54  50  87 CALM      29.80S
SILVER BAY     PTCLDY    54  54 100 CALM      29.80S
GRAND MARAIS     N/A     60  53  77 VRB3      29.78R
G MARAIS ARPRT MOCLDY    57  46  67 W6        29.82R
$$
MNZ029>031-032-039>041-046>048-054>057-064-030200-
   West Central Minnesota

CITY           SKY/WX    TMP DP  RH WIND       PRES   REMARKS
FERGUS FALLS   PTCLDY    68  55  64 SW9       29.77S
WHEATON        CLEAR     66  55  68 S9        29.81S
MORRIS         CLEAR     68  57  68 S9        29.81F
ALEXANDRIA     PTCLDY    70  57  63 S10       29.83F
ELBOW LAKE     FAIR      67  58  72 S10       29.79F
WADENA         CLEAR     66  55  68 SW7       29.79S
GLENWOOD       PTCLDY    66  57  72 S7        29.84F
APPLETON       CLEAR     72  55  56 S6        29.83S
BENSON         CLEAR     66  59  77 SW6       29.84S
ORTONVILLE     CLEAR     70  55  60 S7        29.82F
MADISON        CLEAR     68  59  73 S5        29.85R
WILLMAR        FAIR      68  55  64 CALM      29.87S
$$
MNZ033>034-036-042>043-049>051-058-059-030200-
   Central Minnesota

CITY           SKY/WX    TMP DP  RH WIND       PRES   REMARKS
ST CLOUD       PTCLDY    70  57  63 S6        29.84S
SAUK CENTRE    FAIR      68  57  68 S8        29.84S
PAYNESVILLE    HVY RAIN  66  56  69 S6        29.85F
AITKIN         CLEAR     68  57  68 S5        29.80S
PINE RIVER     CLEAR     66  55  68 S6        29.83R
BRAINERD       CLEAR     66  56  70 S8        29.81S
STAPLES        CLEAR     64  55  72 S7        29.80S
LONG PRAIRIE   FAIR      64  55  72 S6        29.83F
LITTLE FALLS   CLEAR     68  54  60 S5        29.83S
LITCHFIELD     PTCLDY    70  59  68 CALM      29.87S
BUFFALO        PTCLDY    71  55  57 S3        29.87S
MAPLE LAKE     PTCLDY    70  60  69 S3        29.87S
$$
MNZ037-044-045-052-053-030200-
   East Central Minnesota

CITY           SKY/WX    TMP DP  RH WIND       PRES   REMARKS
PRINCETON      PTCLDY    70  55  60 S3        29.85S
MORA           CLEAR     64  52  63 S3        29.85S
CAMBRIDGE      CLEAR     72  55  56 S5        29.83F
RUSH CITY      CLEAR     68  54  60 S3        29.85S
MOOSE LAKE     CLEAR     63  54  72 CALM      29.81S
HINCKLEY       FAIR      64  54  68 SW5       29.83S
CLOQUET        CLEAR     66  52  59 S3        29.82S
MCGREGOR       CLEAR     66  55  68 S6        29.81S
$$
MNZ071>073-080-081-089-090-097-098-030200-
   Southwest Minnesota

CITY           SKY/WX    TMP DP  RH WIND       PRES   REMARKS
MONTEVIDEO     CLEAR     68  55  64 SW3       29.86S
GRANITE FALLS  CLEAR     65  57  75 S7        29.87S
CANBY          CLEAR     70  56  62 S5        29.87S
MARSHALL       CLEAR     68  54  60 SW8       29.86S
REDWOOD FALLS  CLEAR     70  59  68 SW8       29.87S
OLIVIA         CLEAR     68  59  73 SW6       29.86S
PIPESTONE      CLEAR     63  57  82 SW6       29.90S
WINDOM         CLEAR     68  57  68 S5        29.91S
WORTHINGTON    CLEAR     66  57  72 SW6       29.93S
JACKSON        CLEAR     64  55  72 SW3       29.92S
TRACY          CLEAR     68  58  70 S6        29.89S
SLAYTON        CLEAR     65  57  74 CALM      29.91S
$$
MNZ065>067-074>077-082>085-091>093-030200-
   South Central Minnesota

CITY           SKY/WX    TMP DP  RH WIND       PRES   REMARKS
MANKATO        CLEAR     68  55  64 SW7       29.89R
NEW ULM        CLEAR     68  61  77 SW5       29.88S
ST JAMES       CLEAR     68  61  77 S3        29.90S
FAIRMONT       CLEAR     68  55  64 SW6       29.90S
GLENCOE        CLEAR     69  57  64 S3        29.86S
FARIBAULT      CLEAR     70  55  60 CALM      29.89S
OWATONNA       CLEAR     66  61  82 SW5       29.90S
WASECA         CLEAR     63  55  77 SW3       29.91S
ALBERT LEA     CLEAR     70  57  64 CALM      29.91S
$$
MNZ078>079-086>088-094>096-030200-
   Southeast Minnesota

CITY           SKY/WX    TMP DP  RH WIND       PRES   REMARKS
ROCHESTER      CLEAR     66  59  78 W6        29.92S
RED WING       PTCLDY    68  61  77 CALM      29.87R
STANTON        CLEAR     68  60  75 CALM      29.88R
DODGE CENTER   CLEAR     66  61  82 SW5       29.91R
WINONA         CLEAR     70  63  78 CALM      29.89S
AUSTIN         CLEAR     68  57  68 CALM      29.91S
PRESTON        CLEAR     67  61  83 CALM      29.92S
$$
ABBREVIATIONS USED IN REMARKS
   TC - TEMPERATURES IN CELSIUS
  WCI - WIND CHILL INDEX
   HX - HEAT INDEX
  VSB - VISIBILITY
$$



USA.gov is the U.S. government's official web portal to all federal, state and local government web resources and services.